Theta_e
297 298 299 300 300 301 301 300 300 300 300 299 298 298 298 299 301 301 303 303 303 304 305 305 306 307 305 306 304 306 307 309
297 298 298 299 300 300 300 299 300 299 299 298 297 299 300 301 302 302 301 303 303 304 304 305 306 307 306 307 307 305 306 308
298 298 298 298 298 299 299 299 299 299 300 300 300 301 301 301 302 302 303 303 303 303 303 304 305 305 306 306 306 305 304 305
299 299 299 298 298 298 298 298 298 301 300 299 300 301 301 301 301 302 302 302 302 303 303 303 303 304 304 305 306 304 304 303
298 298 298 298 297 298 296 297 298 300 300 300 301 301 301 301 302 302 302 302 302 302 302 302 302 304 302 302 304 304 302 302
298 297 297 297 297 297 297 297 299 299 299 300 301 301 301 302 302 302 302 302 302 302 302 303 303 304 302 300 302 303 303 302
298 298 297 296 296 297 296 299 298 299 299 300 301 301 301 302 302 303 303 303 303 303 303 303 303 303 301 300 300 302 302 301
297 297 298 296 296 299 299 299 298 298 299 300 302 302 302 303 304 304 305 304 304 304 304 305 304 303 301 299 300 302 300 301
297 296 295 296 300 300 298 298 297 299 300 302 302 303 304 305 305 304 304 303 303 302 300 301 302 303 303 299 298 302 301 301
297 295 295 299 300 298 297 297 299 300 301 302 302 303 306 304 303 302 302 302 300 299 299 299 301 302 301 299 297 299 302 302
296 296 298 298 297 298 297 298 300 300 301 301 302 304 306 304 302 301 301 301 299 298 297 297 300 304 303 299 297 297 299 302
295 297 295 295 298 299 299 300 301 300 300 301 302 304 304 304 304 303 302 300 297 296 295 297 299 301 304 304 300 298 300 303
296 295 293 294 298 299 300 300 301 300 300 301 303 304 304 303 303 303 302 301 294 293 294 295 296 298 300 296 300 301 300 298
294 295 293 296 298 299 300 301 300 299 299 301 302 302 304 303 303 303 300 297 295 293 292 293 296 295 294 293 294 295 295 296
294 294 295 297 298 299 300 300 300 300 300 300 301 301 303 302 303 302 301 303 300 298 294 293 292 292 292 292 293 293 294 298
295 295 295 296 298 298 300 300 300 300 301 298 300 301 303 303 303 303 303 302 301 301 300 296 293 293 293 293 294 297 302 302
295 294 296 298 298 298 300 300 300 300 300 299 300 301 303 303 304 304 303 303 302 301 302 301 300 295 294 295 297 306 305 305
293 292 296 298 297 298 299 299 300 299 300 297 298 301 302 303 304 304 304 303 302 301 300 300 304 304 305 305 307 307 307 307
295 294 297 297 297 299 299 300 300 299 299 300 296 301 302 303 303 304 304 303 302 302 301 296 290 305 304 305 306 307 308 308
298 295 297 297 298 297 299 300 299 299 300 301 300 300 301 302 303 304 304 303 303 302 303 301 291 305 305 305 306 308 309 310
Wind_Speed
5 6 4 3 5 6 6 5 5 8 10 9 9 10 8 9 9 9 9 9 9 9 8 10 11 10 7 8 7 6 6 6
5 3 3 5 6 5 5 7 8 9 9 9 10 11 11 11 11 11 10 9 9 9 9 9 9 8 7 8 7 6 5 5
4 3 5 5 4 5 5 9 10 10 11 11 12 12 12 12 11 11 11 10 9 10 10 9 9 8 7 7 7 6 5 5
4 6 6 5 5 6 6 10 10 11 11 12 12 13 13 13 12 12 11 11 11 10 10 10 10 7 10 11 10 5 5 5
5 5 5 5 6 6 7 8 10 11 12 13 13 13 13 13 13 12 11 11 10 10 10 10 11 10 11 11 11 7 6 5
5 5 6 6 6 7 7 7 10 12 12 13 14 14 14 13 12 11 11 9 10 9 9 10 9 9 12 12 12 7 6 7
4 5 4 5 6 7 7 10 11 12 13 14 14 14 14 14 12 11 10 9 8 9 9 10 9 9 11 11 8 6 7 7
3 5 5 6 7 7 10 11 11 12 14 15 15 15 14 14 12 10 7 7 7 6 8 7 10 9 10 11 8 4 6 5
4 6 6 7 7 9 10 11 11 13 15 14 15 15 15 13 10 9 8 6 6 5 8 6 7 7 7 11 10 6 5 5
6 6 7 7 8 8 11 11 13 13 14 14 15 15 9 10 10 8 8 7 6 5 6 5 4 6 8 9 11 9 8 5
4 5 9 8 7 7 10 12 12 13 14 14 14 16 10 10 9 9 7 6 5 5 4 4 4 2 4 10 12 11 9 4
4 6 8 8 9 10 10 11 12 12 13 14 13 13 12 11 7 6 6 7 7 4 4 3 3 3 2 4 5 6 8 6
4 6 6 7 9 9 10 11 11 11 12 11 12 10 10 9 8 7 5 3 2 4 3 3 3 2 2 1 6 7 7 6
5 6 6 7 9 10 10 10 11 11 11 9 9 9 8 8 7 8 8 5 7 7 6 3 3 3 3 7 11 15 16 14
5 7 7 7 9 9 10 11 11 11 11 10 9 9 9 9 8 7 7 7 7 8 13 10 8 5 10 12 15 16 16 10
5 6 6 6 8 9 10 11 10 11 11 13 8 8 8 8 7 7 6 6 7 6 6 9 10 11 13 15 17 14 8 6
5 6 6 7 8 9 11 10 10 11 9 7 9 8 8 8 7 6 6 6 6 5 4 6 8 10 12 11 8 6 8 7
4 5 7 6 8 8 10 10 9 8 9 12 9 7 7 7 6 6 6 5 6 6 6 5 4 5 6 6 7 7 8 8
3 4 6 5 7 8 8 9 9 6 6 7 11 7 7 7 6 6 6 5 5 5 5 5 7 6 6 6 6 8 8 8
2 4 4 5 6 7 7 7 8 6 5 6 6 6 7 7 6 5 6 6 6 6 6 7 8 7 7 7 7 7 7 7
Wind_Direction
50 75 50 350 313 321 359 358 319 315 314 306 296 294 289 286 291 280 277 276 276 271 267 266 263 248 225 231 225 233 229 239
69 57 343 327 329 1 338 320 313 310 297 293 291 296 300 299 294 288 280 276 275 269 264 265 264 252 252 257 240 218 230 249
50 356 326 313 0 332 323 321 315 302 302 303 304 304 301 295 292 288 282 277 272 271 267 262 259 251 252 245 239 219 220 248
6 336 326 350 326 312 317 323 311 307 304 305 305 302 299 293 290 287 281 276 268 267 262 261 260 250 241 237 241 220 207 220
323 323 321 302 312 303 299 305 306 312 310 309 309 306 301 296 289 284 280 275 270 265 259 253 253 248 239 238 235 235 231 221
346 307 291 295 301 298 292 302 317 318 313 312 310 306 300 296 289 281 275 271 264 259 258 250 245 243 232 229 234 231 221 219
274 291 291 294 306 296 297 322 321 318 317 314 310 306 302 299 291 285 276 271 266 259 252 251 243 243 225 222 213 221 210 213
325 324 303 320 301 305 329 323 321 320 317 311 309 307 301 296 298 294 286 274 272 267 267 251 245 243 222 212 201 203 194 198
358 334 325 293 309 328 325 323 321 318 313 312 313 310 307 308 313 319 301 287 276 281 284 278 261 245 229 203 195 190 186 179
340 344 318 332 332 329 325 325 322 320 315 319 317 315 321 327 322 319 315 303 282 281 290 280 260 239 217 197 181 184 165 163
334 328 326 335 328 332 324 324 322 322 319 321 320 319 329 327 327 325 327 324 304 295 301 295 295 272 201 185 175 170 164 139
326 330 331 326 338 337 328 323 323 323 321 323 321 325 332 331 329 325 336 350 341 332 311 310 321 322 91 132 145 150 146 123
326 322 311 314 332 332 329 327 328 325 322 323 325 328 328 327 329 326 335 348 309 314 311 307 316 330 96 334 134 143 147 131
330 318 310 322 331 332 336 334 332 326 324 327 327 326 326 328 325 326 331 311 360 11 1 267 299 293 320 139 144 134 131 139
327 317 311 317 330 334 340 337 330 328 326 327 327 328 331 334 333 336 339 349 356 2 17 21 25 39 76 94 123 124 127 119
313 318 314 326 331 337 334 332 330 330 331 325 330 323 329 331 333 336 342 357 7 7 1 24 27 63 81 94 109 117 119 112
320 328 324 337 338 335 334 331 329 331 332 332 329 323 328 327 332 336 342 8 9 12 4 12 26 61 94 119 136 118 127 122
6 338 324 337 335 331 329 326 327 332 328 325 328 327 326 333 338 345 350 7 15 20 24 18 18 57 66 72 83 88 100 109
303 321 309 327 326 332 325 322 337 330 321 326 328 331 334 333 337 350 355 10 16 24 34 26 31 60 65 72 86 98 97 100
318 342 318 321 323 328 326 329 339 328 321 328 334 330 329 337 341 350 2 17 24 28 32 35 34 55 60 70 81 87 95 103